Epoch = 2023 June 25.0 TT T = 2023 July 8.64003 TT Peri. = 356.63762 e = 0.3434109 Node = 93.55606 2000.0 q = 3.0714282 AU Incl. = 6.08283 a = 4.6778545 AU n = 0.09741683 P = 10.12 years
m1 = 13.5 + 5 logΔ + 10.0 log r